Location: Newark
(45.4422°N, 16.2769°E)
Time: 21:55:41
(UTC+00:00)

Explorer 7 - Pass Details

Date: 21 January 2021
Orbit: 484 x 677 km, 50.3° (Epoch: 07 March)

Event Time Altitude Azimuth Distance (km) Brightness Sun altitude
Exits shadow 04:20:13 27° 189° (S) 1,009 8.1 -21.9°
Maximum altitude 04:21:42 38° 143° (SE) 798 7.9 -21.7°
Drops below altitude 10° 04:25:27 10° 74° (ENE) 1,789 10.4 -21.0°
Sets 04:27:51 0° 67° (ENE) 2,718 11.4 -20.6°
